Regional Weather Roundup
Issued by NWS Cleveland, OH

Home | Current Version | Previous Version | Graphics & Text | Print | Product List | Glossary On
Versions: 1 2 3 4 5 6 7 8 9 10 11 12 13 14 15 16 17 18 19 20 21 22 23 24 25 26 27 28 29 30 31 32 33 34 35 36 37 38 39 40 41 42 43 44 45 46 47 48 49 50
000
ASUS41 KCLE 201310
RWRCLE
OHIO REGIONAL WEATHER ROUNDUP
NATIONAL WEATHER SERVICE CLEVELAND, OH
900 AM EDT SUN APR 20 2014

NOTE: "FAIR" INDICATES FEW OR NO CLOUDS BELOW 12,000 FEET WITH NO
SIGNIFICANT WEATHER AND/OR OBSTRUCTIONS TO VISIBILITY.

OHZ001>008-015>018-024>027-034-035-043-044-201400-
   NORTHWEST OHIO

CITY           SKY/WX    TMP DP  RH WIND       PRES   REMARKS
DEFIANCE       SUNNY     43  35  73 NE6       30.31S
FINDLAY        SUNNY     48  34  58 SE6       30.29R
TOLEDO EXPRESS SUNNY     45  37  73 VRB5      30.31S
TOLEDO EXEC    SUNNY     46  38  73 E3        30.32S
LIMA           SUNNY     50  34  54 SE7       30.29R
$$

OHZ009>014-019>023-028>033-038-089-201400-
   NORTHEAST OHIO

CITY           SKY/WX    TMP DP  RH WIND       PRES   REMARKS
CLE-HOPKINS    MOSUNNY   53  32  44 SE10      30.33F
CLE-LAKEFRONT  SUNNY     51  31  46 SE8       30.30S
CUY CO. ARPT   PTSUNNY   52  30  43 SE14      30.33S
LORAIN-ELYRIA  SUNNY     49  35  58 S5        30.31F
ASHTABULA      SUNNY     51  28  41 S8        30.35S
AKRON-CANTON   PTSUNNY   45  28  51 E6        30.32F
WOOSTER        SUNNY     48  34  58 SE7       30.31F
MANSFIELD      SUNNY     50  33  52 S5        30.30F
YOUNGSTOWN     PTSUNNY   50  28  42 E12       30.34F
$$

OHZ042-051>053-060>062-070>072-077>081-201400-
  SOUTHWEST OHIO

CITY           SKY/WX    TMP DP  RH WIND       PRES   REMARKS
CINC-COVINGTON MOSUNNY   52  34  50 E5        30.26F
CINC-LUNKEN    MOSUNNY   49  39  68 N3        30.28F
HAMILTON       MOSUNNY   51  37  58 CALM      30.29S
DAYTON         PTSUNNY   51  34  52 E6        30.29S
WRIGHT-PAT AFB MOSUNNY   48  36  63 NE3       30.28F
DAYTON GENERAL MOSUNNY   51  34  52 E5        30.27S
WILMINGTON     MOSUNNY   49  35  58 E6        30.27F
$$

OHZ036-037-039>041-045>050-054>059-063>069-073>076-082>088-201400-
  CENTRAL AND SOUTHEAST OHIO

CITY           SKY/WX    TMP DP  RH WIND       PRES   REMARKS
COLUMBUS       PTSUNNY   53  30  41 E6        30.29R
OSU AIRPORT    MOSUNNY   50  33  52 CALM      30.30R
BOLTON FIELD   SUNNY     50  36  57 E3        30.29S
RICKENBACK AFB MOSUNNY   52  32  46 CALM      30.29R
NEWARK         SUNNY     50  32  50 CALM      30.29F
MARION         MOSUNNY   49  35  58 SE6       30.30S
LANCASTER      MOSUNNY   49  35  58 S5        30.29F
ZANESVILLE     SUNNY     52  32  46 SE9       30.31S
NEW PHILLY     SUNNY     49  32  52 SE5       30.33S
$$



USA.gov is the U.S. government's official web portal to all federal, state and local government web resources and services.